This demonstration page uses our WeatherBlox Daily Observations layout. Learn more.

Left ArrowRight Arrow

Hourly Observations for November 6, 2016

Temp ( °F °C ) Dew Point ( °F °C ) Humidity (%) Winds ( mph kmh ) Pressure ( in mb ) Visibility ( mi km ) Precip ( " mm )
12:15 am 00:15 Cloudy 51 10.6 47 8.5 87 87 SE 9 15 30.18 1022 10 16 N/A
12:35 am 00:35 Cloudy 52 10.9 48 8.9 88 88 SSE 7 11 30.15 1021 10 16 N/A
12:55 am 00:55 Cloudy 52 11 48 8.7 86 86 S 12 19 30.15 1021 10 16 N/A
1:15 am 01:15 Partly Cloudy 53 11.6 48 8.7 83 83 SSE 8 13 30.15 1021 10 16 N/A
1:35 am 01:35 Mostly Cloudy 53 11.5 48 9 85 85 SSE 8 13 30.15 1021 10 16 N/A
1:55 am 01:55 Cloudy 53 11.5 48 9 85 85 SSE 8 13 30.15 1021 10 16 N/A
1:15 am 01:15 Cloudy 52 11.3 48 9 86 86 SSE 8 13 30.12 1020 10 16 N/A
1:35 am 01:35 Cloudy 54 12.1 49 9.7 85 85 SSE 10 17 30.12 1020 10 16 N/A
1:55 am 01:55 Cloudy 54 12.2 50 10 87 87 SSE 12 19 30.12 1020 10 16 N/A
2:15 am 02:15 Mostly Cloudy 55 12.5 51 10.5 88 88 SSE 10 17 30.12 1020 10 16 N/A
2:55 am 02:55 Cloudy 55 13 51 10.8 87 87 SSE 10 17 30.12 1020 10 16 N/A
3:15 am 03:15 Cloudy 56 13.2 51 10.7 85 85 S 12 19 30.12 1020 10 16 N/A
3:35 am 03:35 Cloudy 56 13.2 51 10.7 85 85 S 12 19 30.12 1020 10 16 N/A
3:55 am 03:55 Cloudy 56 13.3 51 10.6 84 84 S 13 20 30.12 1020 10 16 N/A
4:15 am 04:15 Cloudy 56 13.5 51 10.7 83 83 S 9 15 30.12 1020 10 16 N/A
4:35 am 04:35 Cloudy 55 13 51 10.5 85 85 SSE 9 15 30.12 1020 10 16 N/A
4:55 am 04:55 Cloudy 55 12.7 51 10.5 87 87 SSE 9 15 30.12 1020 10 16 N/A
5:15 am 05:15 Cloudy 54 12.2 50 10.2 88 88 SSE 12 19 30.12 1020 10 16 N/A
5:35 am 05:35 Partly Cloudy 54 12.3 50 10 86 86 S 13 20 30.12 1020 10 16 N/A
5:55 am 05:55 Partly Cloudy 53 11.5 49 9.5 88 88 SSE 10 17 30.12 1020 10 16 N/A
6:10 am 06:10 Partly Cloudy 53 11.5 49 9.5 88 88 SSE 9 15 30.12 1020 10 16 N/A
6:35 am 06:35 Partly Cloudy 52 11 48 9 88 88 SSE 9 15 30.12 1020 10 16 N/A
6:55 am 06:55 Clear 51 10.6 48 9 90 90 SE 8 13 30.12 1020 10 16 N/A
7:15 am 07:15 Partly Cloudy 53 11.6 49 9.5 87 87 SSE 12 19 30.12 1020 10 16 N/A
7:35 am 07:35 Cloudy 55 12.5 49 9.7 83 83 SSE 13 20 30.12 1020 10 16 N/A
7:55 am 07:55 Cloudy 55 12.9 49 9.7 81 81 SSE 16 26 30.12 1020 10 16 N/A
8:15 am 08:15 Cloudy 56 13.2 49 9.5 78 78 SSE 16 26 30.12 1020 10 16 N/A
8:35 am 08:35 Cloudy 57 13.7 48 8.8 72 72 SSE 16 26 30.12 1020 10 16 N/A
8:55 am 08:55 Cloudy 58 14.3 46 8 66 66 SSE 16 26 30.09 1019 10 16 N/A
9:15 am 09:15 Mostly Cloudy 58 14.3 46 8 66 66 SSE 21 33 30.09 1019 10 16 N/A
9:35 am 09:35 Mostly Cloudy 58 14.6 46 8 65 65 SSE 18 30 30.09 1019 10 16 N/A
9:55 am 09:55 Partly Cloudy 60 15.7 46 7.9 60 60 SSE 21 33 30.09 1019 10 16 N/A
10:15 am 10:15 Mostly Cloudy 61 15.9 46 7.7 58 58 S 20 31 30.09 1019 10 16 N/A
10:35 am 10:35 Mostly Cloudy 61 16.3 47 8.2 59 59 S 17 28 30.09 1019 10 16 N/A
10:55 am 10:55 Cloudy 62 16.9 47 8.5 58 58 S 21 33 30.09 1019 10 16 N/A
11:15 am 11:15 Mostly Cloudy 64 17.7 47 8.2 54 54 S 17 28 30.06 1018 10 16 N/A
11:35 am 11:35 Partly Cloudy 64 17.6 47 8.2 54 54 S 21 33 30.06 1018 10 16 N/A
11:55 am 11:55 Mostly Cloudy 64 17.7 47 8.2 54 54 S 18 30 30.03 1017 10 16 N/A
12:15 pm 12:15 Mostly Cloudy 64 17.5 46 8 54 54 S 17 28 30.03 1017 10 16 N/A
12:35 pm 12:35 Cloudy 63 17.2 46 7.7 54 54 SSE 17 28 30.03 1017 10 16 N/A
12:55 pm 12:55 Cloudy 63 17.2 46 7.5 53 53 S 15 24 30.03 1017 10 16 N/A
1:15 pm 13:15 Cloudy 64 17.7 46 7.5 51 51 SSE 20 31 30.00 1016 10 16 N/A
1:35 pm 13:35 Cloudy 65 18.4 45 7.1 48 48 SSE 21 33 30.00 1016 10 16 N/A
1:55 pm 13:55 Partly Cloudy 67 19.2 44 6.8 45 45 SSE 17 28 30.00 1016 10 16 N/A
2:15 pm 14:15 Mostly Cloudy 65 18.3 44 6.5 46 46 S 18 30 30.00 1016 10 16 N/A
2:35 pm 14:35 Cloudy 65 18.2 44 6.7 47 47 SSE 17 28 30.00 1016 10 16 N/A
2:55 pm 14:55 Mostly Cloudy 65 18.1 43 6.1 46 46 SSE 18 30 30.00 1016 10 16 N/A
3:15 pm 15:15 Cloudy 64 17.8 44 6.4 47 47 SSE 15 24 30.00 1016 10 16 N/A
3:35 pm 15:35 Cloudy 65 18.1 43 6 45 45 SSE 15 24 30.00 1016 10 16 N/A
3:55 pm 15:55 Cloudy 65 18.2 44 6.5 47 47 SSE 17 28 30.00 1016 10 16 N/A
4:15 pm 16:15 Cloudy 64 18 45 7.1 49 49 SSE 20 31 30.00 1016 10 16 N/A
4:35 pm 16:35 Cloudy 64 17.8 46 7.6 51 51 SSE 16 26 30.00 1016 10 16 N/A
4:55 pm 16:55 Partly Cloudy 64 17.5 45 7.2 51 51 SSE 16 26 30.00 1016 10 16 N/A
5:15 pm 17:15 Mostly Cloudy 64 17.5 44 6.9 50 50 S 16 26 30.00 1016 10 16 N/A
5:35 pm 17:35 Cloudy 63 17.3 44 6.9 51 51 S 17 28 30.00 1016 10 16 N/A
5:55 pm 17:55 Cloudy 63 17 44 6.6 51 51 S 15 24 30.00 1016 10 16 N/A
6:15 pm 18:15 Cloudy 62 16.7 45 7 53 53 S 17 28 30.00 1016 10 16 N/A
6:35 pm 18:35 Cloudy 62 16.5 44 6.7 53 53 S 16 26 30.03 1017 10 16 N/A
6:55 pm 18:55 Cloudy 61 16.3 44 6.6 53 53 S 12 19 30.03 1017 10 16 N/A
7:15 pm 19:15 Cloudy 61 16.2 42 5.7 50 50 S 16 26 30.03 1017 10 16 N/A
7:35 pm 19:35 Cloudy 61 16 41 5.2 49 49 S 15 24 30.03 1017 10 16 N/A
7:55 pm 19:55 Cloudy 60 15.7 43 6.2 53 53 S 13 20 30.03 1017 10 16 N/A
8:15 pm 20:15 Cloudy 60 15.5 45 7 57 57 SSW 16 26 30.03 1017 10 16 N/A
8:35 pm 20:35 Cloudy 59 15.1 44 6.8 58 58 S 20 31 30.06 1018 10 16 N/A
8:55 pm 20:55 Cloudy 57 13.9 45 7.2 64 64 S 14 22 30.06 1018 10 16 N/A
9:15 pm 21:15 Cloudy with Drizzle 55 12.8 47 8.4 75 75 SSW 13 20 30.09 1019 10 16 N/A
9:35 pm 21:35 Cloudy with Light Rain 54 12.1 48 9.1 82 82 S 12 19 30.09 1019 10 16 N/A
9:55 pm 21:55 Cloudy with Light Rain 53 11.7 49 9.5 87 87 S 10 17 30.09 1019 10 16 N/A
10:15 pm 22:15 Cloudy with Drizzle 53 11.6 50 9.8 89 89 S 13 20 30.09 1019 10 16 0.01 0.25
10:35 pm 22:35 Cloudy with Drizzle 53 11.5 50 10 91 91 S 9 15 30.09 1019 10 16 0.01 0.25
10:55 pm 22:55 Cloudy with Drizzle 52 11.3 50 10.2 93 93 S 9 15 30.09 1019 7 11 0.02 0.51
11:15 pm 23:15 Cloudy with Light Rain 52 11.1 50 10.2 94 94 S 10 17 30.09 1019 5 8 0.03 0.76
11:35 pm 23:35 Cloudy with Drizzle 52 11.2 51 10.3 94 94 SSE 12 19 30.09 1019 5 8 0.03 0.76
11:55 pm 23:55 Cloudy with Drizzle 52 11.2 51 10.3 94 94 S 12 19 30.09 1019 7 11 0.03 0.76

Powered by AerisWeather